Location: Brno
(49.2000°N, 16.6330°E)
Time: 03:33:31
(UTC+02:00)

Vanguard 3 - Pass Details

Date: 06 August 2021
Orbit: 510 x 3260 km, 33.3° (Epoch: 16 September)

Event Time Altitude Azimuth Distance (km) Brightness Sun altitude
Rises 20:26:49 0° 260° (W) 5,726 12.5 -1.1°
Reaches altitude 10° 20:30:22 10° 254° (WSW) 5,043 12.0 -1.6°
Maximum altitude 20:44:48 44° 190° (S) 3,855 10.4 -3.6°
Drops below altitude 10° 21:02:38 10° 128° (SE) 6,136 10.9 -6.1°
Enters shadow 21:04:12 - 126° (SE) 6,415 11.0 -6.3°
Sets 21:07:32 0° 122° (ESE) 7,021 - -6.8°
